Content
SEND FEEDBACK

Daily
Averages
Monthly
Summary
Belgium

GENT, BELGIUM


Home > Europe > Belgium
Elevation: 43 feet     Latitude: 51 11N     Longitude: 003 49E

WEATHER
 
SELECT A DAY
Number of Records: 305,664;   Date Range: 7/1/96 - 7/20/14
 
SHARE

PRINT THIS DATA

[ ← Previous Day ]
WEATHER ALMANAC - FEBRUARY 16, 2014
[ Next Day → ]
[ °C ]   °F
Weather ElementAverageHighLow
Temperature44.9 °F50 °F (12:50 pm)41 °F (8:20 am)
Dewpoint36.8 °F39.2 °F (12:50 am)32 °F (2:50 pm)
Humidity72 %87 % (1:50 am)40 % (2:00 pm)
Barometer29.77 in29.86 in (10:00 pm)29.59 in (12:20 am)
Wind Speed11.3 mph18.4 mph (12:50 pm)
Wind Gust28.8 mph (1:20 pm)
Weather ElementAverage
Visibility10.6 mi
Wind DirectionSW (224.4 °)

Weather ElementTotal
Precipitation---
Heating Degree Days19.5 (Base 65)
Averaged from 71 records on February 16, 2014
WEATHER CONDITIONS BREAKOUT
WIND DIRECTION BREAKOUT
WEATHER BY HOUR - FEBRUARY 16, 2014
[ °C ]   °F
Local TimeTemperatureDewpointHumidityBarometerVisibilityWind DirectionWind SpeedGust SpeedPrecipitationEventsConditions
12:20 AM44.6 °F37.4 °F76 %29.59 in6.2 miSW (220°)16.1 mphRainLight Rain Showers
12:50 AM44.6 °F39.2 °F81 %29.62 in6.2 miSW (220°)13.8 mphRainLight Rain Showers
1:00 AM44.0 °F39.0 °F76 %29.62 in13.0 miSW (220°)13.4 mphClear
1:20 AM42.8 °F37.4 °F81 %29.62 in6.2 miSW (230°)16.1 mphRainLight Rain Showers
1:50 AM42.8 °F39.2 °F87 %29.62 in6.2 miSW (230°)13.8 mphScattered Clouds
2:00 AM44.0 °F39.0 °F75 %29.64 in28.0 miSW (230°)13.4 mphClear
2:20 AM42.8 °F39.2 °F87 %29.62 in6.2 miSW (230°)12.7 mphPartly Cloudy
2:50 AM42.8 °F37.4 °F81 %29.65 in6.2 miSW (230°)13.8 mphScattered Clouds
3:00 AM43.0 °F38.0 °F77 %29.65 in28.0 miSW (230°)13.4 mphScattered Clouds
3:20 AM42.8 °F39.2 °F87 %29.65 in6.2 miSW (230°)13.8 mphPartly Cloudy
3:50 AM42.8 °F39.2 °F87 %29.65 in6.2 miSW (230°)13.8 mphPartly Cloudy
4:00 AM43.0 °F38.0 °F78 %29.67 in25.0 miSW (230°)13.4 mphClear
4:20 AM42.8 °F39.2 °F87 %29.65 inSW (230°)12.7 mphClear
4:50 AM42.8 °F39.2 °F87 %29.68 in6.2 miSW (230°)12.7 mphScattered Clouds
5:00 AM43.0 °F38.0 °F78 %29.68 in22.0 miSW (230°)13.4 mphPartly Cloudy
5:20 AM42.8 °F39.2 °F87 %29.68 inSW (230°)11.5 mphClear
5:50 AM42.8 °F39.2 °F87 %29.68 in6.2 miSW (230°)11.5 mph27.6 mphMostly Cloudy
6:00 AM44.0 °F39.0 °F75 %29.70 in19.0 miSW (230°)11.2 mphMostly Cloudy
6:20 AM42.8 °F39.2 °F87 %29.71 in6.2 miSW (230°)11.5 mphScattered Clouds
6:50 AM42.8 °F39.2 °F87 %29.71 in6.2 miSW (230°)10.4 mphScattered Clouds
7:00 AM42.0 °F38.0 °F82 %29.72 in16.0 miSW (230°)11.2 mphPartly Cloudy
7:20 AM42.8 °F37.4 °F81 %29.71 in6.2 miSW (230°)11.5 mphScattered Clouds
7:50 AM42.8 °F37.4 °F81 %29.74 in6.2 miSW (230°)9.2 mphScattered Clouds
8:00 AM42.0 °F38.0 °F79 %29.75 in16.0 miSW (230°)8.9 mphPartly Cloudy
8:20 AM41.0 °F37.4 °F87 %29.74 in6.2 miSW (230°)10.4 mphPartly Cloudy
8:50 AM42.8 °F37.4 °F81 %29.77 in6.2 miSW (230°)10.4 mphPartly Cloudy
9:00 AM42.0 °F38.0 °F80 %29.77 in16.0 miSW (230°)11.2 mphScattered Clouds
9:20 AM42.8 °F37.4 °F81 %29.77 in6.2 miSW (230°)11.5 mphPartly Cloudy
9:50 AM44.6 °F37.4 °F76 %29.77 in6.2 miSW (230°)11.5 mphPartly Cloudy
10:00 AM44.0 °F38.0 °F73 %29.79 in16.0 miSW (230°)11.2 mphScattered Clouds
10:20 AM44.6 °F37.4 °F76 %29.80 in6.2 miSW (230°)12.7 mphPartly Cloudy
10:50 AM46.4 °F39.2 °F76 %29.80 in6.2 miSW (230°)13.8 mphMostly Cloudy
11:00 AM46.0 °F38.0 °F67 %29.81 in16.0 miSW (230°)13.4 mphMostly Cloudy
11:20 AM46.4 °F37.4 °F71 %29.80 in6.2 miWSW (240°)15.0 mphMostly Cloudy
11:50 AM48.2 °F35.6 °F62 %29.83 in6.2 miWSW (250°)16.1 mphMostly Cloudy
12:00 PM47.0 °F36.0 °F56 %29.83 in16.0 miWSW (250°)15.7 mphMostly Cloudy
12:20 PM48.2 °F35.6 °F62 %29.83 in6.2 miSW (230°)17.3 mphMostly Cloudy
12:50 PM50.0 °F35.6 °F58 %29.83 in6.2 miWSW (240°)18.4 mphScattered Clouds
1:00 PM49.0 °F35.0 °F48 %29.83 in16.0 miWSW (240°)17.9 mphPartly Cloudy
1:20 PM50.0 °F33.8 °F54 %29.83 in6.2 miWSW (240°)16.1 mph28.8 mphScattered Clouds
1:50 PM50.0 °F33.8 °F54 %29.83 in6.2 miWest (260°)17.3 mphScattered Clouds
2:00 PM50.0 °F33.0 °F40 %29.83 in19.0 miWest (260°)15.7 mphPartly Cloudy
2:20 PM50.0 °F35.6 °F58 %29.83 in6.2 miWSW (240°)13.8 mphScattered Clouds
2:50 PM48.2 °F32.0 °F54 %29.83 in6.2 miWSW (240°)13.8 mphScattered Clouds
3:00 PM48.0 °F33.0 °F44 %29.83 in19.0 miWSW (240°)13.4 mphPartly Cloudy
3:20 PM50.0 °F32.0 °F50 %29.83 in6.2 miWSW (240°)15.0 mphScattered Clouds
3:50 PM50.0 °F33.8 °F54 %29.83 in6.2 miWSW (240°)12.7 mphScattered Clouds
4:00 PM49.0 °F33.0 °F43 %29.83 in19.0 miWSW (240°)13.4 mphPartly Cloudy
4:20 PM48.2 °F33.8 °F58 %29.83 in6.2 miWSW (240°)11.5 mphScattered Clouds
4:50 PM48.2 °F33.8 °F58 %29.83 in6.2 miWSW (240°)11.5 mphScattered Clouds
5:00 PM49.0 °F34.0 °F45 %29.83 in19.0 miWSW (240°)11.2 mphPartly Cloudy
5:20 PM48.2 °F33.8 °F58 %29.83 in6.2 miSW (230°)9.2 mphScattered Clouds
5:50 PM46.4 °F33.8 °F62 %29.83 in6.2 miSW (230°)10.4 mphPartly Cloudy
6:00 PM47.0 °F34.0 °F50 %29.83 in19.0 miSW (230°)11.2 mphScattered Clouds
6:20 PM46.4 °F35.6 °F66 %29.83 in6.2 miSW (220°)6.9 mphPartly Cloudy
6:50 PM46.4 °F35.6 °F66 %29.83 in6.2 miSW (220°)4.6 mphPartly Cloudy
7:00 PM46.0 °F36.0 °F59 %29.84 in19.0 miSW (220°)4.5 mphScattered Clouds
7:20 PM44.6 °F37.4 °F76 %29.83 in6.2 miSSW (200°)5.8 mphPartly Cloudy
7:50 PM44.6 °F37.4 °F76 %29.83 in6.2 miSSW (200°)5.8 mphPartly Cloudy
8:00 PM45.0 °F37.0 °F66 %29.85 in19.0 miSSW (200°)6.7 mphScattered Clouds
8:20 PM44.6 °F37.4 °F76 %29.83 inSSW (200°)5.8 mphClear
8:50 PM42.8 °F37.4 °F81 %29.83 inSSW (210°)4.6 mphClear
9:00 PM44.0 °F38.0 °F71 %29.85 in19.0 miSSW (210°)4.5 mph
9:20 PM42.8 °F37.4 °F81 %29.83 inSouth (180°)4.6 mphClear
9:50 PM42.8 °F37.4 °F81 %29.83 inSouth (180°)4.6 mphClear
10:00 PM42.0 °F38.0 °F79 %29.86 in9.0 miSouth (180°)4.5 mph
10:20 PM41.0 °F37.4 °F87 %29.86 inSouth (170°)6.9 mphClear
10:50 PM41.0 °F37.4 °F87 %29.83 inSouth (180°)5.8 mphClear
11:00 PM41.0 °F37.0 °F80 %29.85 in7.0 miSouth (180°)6.7 mph
11:20 PM41.0 °F37.4 °F87 %29.86 in6.2 miSouth (180°)5.8 mphPartly Cloudy
11:50 PM41.0 °F37.4 °F87 %29.83 inSouth (180°)5.8 mphClear
Hourly data recorded from EBAW, located miles away from Gent, Belgium







STORIES FROM OUR PARTNERS